Time,TemperatureF,DewpointF,PressureIn,WindDirection,WindDirectionDegrees,WindSpeedMPH,WindSpeedGustMPH,Humidity,HourlyPrecipIn,Conditions,Clouds,dailyrainin,SolarRadiationWatts/m^2,SoftwareType,DateUTC
2013-02-27 00:02:00,63.0,62.0,-100.00,WSW,250,4.0,-999.0,95,0.00,,,-99.99,0.700000,,2013-02-27 05:02:00,
2013-02-27 00:12:00,63.0,62.0,-100.00,WSW,253,5.0,-999.0,96,0.00,,,-99.99,0.700000,,2013-02-27 05:12:00,
2013-02-27 00:22:00,63.0,62.0,-100.00,WSW,253,5.0,-999.0,96,0.00,,,-99.99,0.700000,,2013-02-27 05:22:00,
2013-02-27 00:32:00,63.0,62.0,-100.00,WSW,243,5.0,-999.0,96,0.00,,,-99.99,0.700000,,2013-02-27 05:32:00,
2013-02-27 00:42:00,63.0,62.0,-100.00,WSW,243,5.0,-999.0,96,0.00,,,-99.99,0.700000,,2013-02-27 05:42:00,
2013-02-27 00:52:00,63.0,62.0,-100.00,WSW,244,5.0,-999.0,96,0.00,,,-99.99,0.700000,,2013-02-27 05:52:00,
2013-02-27 01:02:00,63.0,62.0,-100.00,West,262,5.0,-999.0,96,0.00,,,-99.99,0.700000,,2013-02-27 06:02:00,
2013-02-27 01:11:00,63.0,62.0,-100.00,WSW,243,5.0,-999.0,96,0.00,,,-99.99,0.700000,,2013-02-27 06:11:00,
2013-02-27 01:22:00,63.0,62.0,-100.00,WSW,243,5.0,-999.0,96,0.00,,,-99.99,0.700000,,2013-02-27 06:22:00,
2013-02-27 01:33:00,63.0,62.0,-100.00,West,259,5.0,-999.0,96,0.00,,,-99.99,0.700000,,2013-02-27 06:33:00,
2013-02-27 01:42:00,63.0,62.0,-100.00,WSW,257,5.0,-999.0,96,0.00,,,-99.99,0.700000,,2013-02-27 06:42:00,
2013-02-27 01:52:00,63.0,62.0,-100.00,WSW,257,5.0,-999.0,96,0.00,,,-99.99,0.700000,,2013-02-27 06:52:00,
2013-02-27 02:01:00,63.0,62.0,-100.00,WSW,257,5.0,-999.0,95,0.00,,,-99.99,0.700000,,2013-02-27 07:01:00,
2013-02-27 02:12:00,63.0,62.0,-100.00,WSW,257,5.0,-999.0,95,0.00,,,-99.99,0.700000,,2013-02-27 07:12:00,
2013-02-27 02:21:00,63.0,62.0,-100.00,West,263,5.0,-999.0,95,0.00,,,-99.99,0.700000,,2013-02-27 07:21:00,
2013-02-27 02:32:00,63.0,62.0,-100.00,West,261,4.0,-999.0,95,0.00,,,-99.99,0.700000,,2013-02-27 07:32:00,
2013-02-27 02:42:00,63.0,61.0,-100.00,WSW,258,3.0,-999.0,95,0.00,,,-99.99,0.700000,,2013-02-27 07:42:00,
2013-02-27 02:52:00,63.0,61.0,-100.00,WSW,258,3.0,-999.0,95,0.00,,,-99.99,0.700000,,2013-02-27 07:52:00,
2013-02-27 03:01:00,63.0,61.0,-100.00,WSW,249,3.0,-999.0,95,0.00,,,-99.99,0.600000,,2013-02-27 08:01:00,
2013-02-27 03:11:00,62.0,61.0,-100.00,WSW,254,3.0,-999.0,95,0.00,,,-99.99,0.600000,,2013-02-27 08:11:00,
2013-02-27 03:21:00,62.0,61.0,-100.00,WSW,254,3.0,-999.0,95,0.00,,,-99.99,0.600000,,2013-02-27 08:21:00,
2013-02-27 03:32:00,62.0,61.0,-100.00,SW,236,3.0,-999.0,95,0.00,,,-99.99,0.600000,,2013-02-27 08:32:00,
2013-02-27 03:42:00,62.0,61.0,-100.00,West,268,3.0,-999.0,95,0.00,,,-99.99,0.600000,,2013-02-27 08:42:00,
2013-02-27 03:53:00,62.0,61.0,-100.00,West,268,3.0,-999.0,95,0.00,,,-99.99,0.600000,,2013-02-27 08:53:00,
2013-02-27 04:02:00,62.0,61.0,-100.00,West,261,3.0,-999.0,95,0.00,,,-99.99,0.600000,,2013-02-27 09:02:00,
2013-02-27 04:12:00,62.0,60.0,-100.00,WNW,286,5.0,-999.0,95,0.00,,,-99.99,0.600000,,2013-02-27 09:12:00,
2013-02-27 04:22:00,62.0,60.0,-100.00,WNW,286,5.0,-999.0,95,0.00,,,-99.99,0.600000,,2013-02-27 09:22:00,
2013-02-27 04:32:00,61.0,60.0,-100.00,WNW,289,5.0,-999.0,95,0.00,,,-99.99,0.600000,,2013-02-27 09:32:00,
2013-02-27 04:42:00,61.0,60.0,-100.00,WNW,285,5.0,-999.0,94,0.00,,,-99.99,0.600000,,2013-02-27 09:42:00,
2013-02-27 04:52:00,61.0,60.0,-100.00,WNW,285,5.0,-999.0,94,0.00,,,-99.99,0.600000,,2013-02-27 09:52:00,
2013-02-27 05:01:00,61.0,59.0,-100.00,West,277,5.0,-999.0,93,0.00,,,-99.99,0.600000,,2013-02-27 10:01:00,
2013-02-27 05:12:00,61.0,59.0,-100.00,WNW,293,4.0,-999.0,93,0.00,,,-99.99,0.600000,,2013-02-27 10:12:00,
2013-02-27 05:22:00,61.0,59.0,-100.00,WNW,293,4.0,-999.0,93,0.00,,,-99.99,0.600000,,2013-02-27 10:22:00,
2013-02-27 05:32:00,61.0,59.0,-100.00,WNW,297,4.0,-999.0,92,0.00,,,-99.99,0.600000,,2013-02-27 10:32:00,
2013-02-27 05:42:00,61.0,59.0,-100.00,WNW,295,3.0,-999.0,92,0.00,,,-99.99,0.600000,,2013-02-27 10:42:00,
2013-02-27 05:53:00,61.0,59.0,-100.00,WNW,295,3.0,-999.0,92,0.00,,,-99.99,0.600000,,2013-02-27 10:53:00,
2013-02-27 06:02:00,61.0,59.0,-100.00,WNW,287,3.0,-999.0,92,0.00,,,-99.99,0.600000,,2013-02-27 11:02:00,
2013-02-27 06:12:00,60.0,58.0,-100.00,WNW,288,3.0,-999.0,92,0.00,,,-99.99,0.600000,,2013-02-27 11:12:00,
2013-02-27 06:22:00,60.0,58.0,-100.00,WNW,288,3.0,-999.0,92,0.00,,,-99.99,0.600000,,2013-02-27 11:22:00,
2013-02-27 06:32:00,60.0,58.0,-100.00,West,270,2.0,-999.0,92,0.00,,,-99.99,0.500000,,2013-02-27 11:32:00,
2013-02-27 06:42:00,60.0,58.0,-100.00,West,260,2.0,-999.0,93,0.00,,,-99.99,0.500000,,2013-02-27 11:42:00,
2013-02-27 06:52:00,60.0,58.0,-100.00,West,260,2.0,-999.0,93,0.00,,,-99.99,0.500000,,2013-02-27 11:52:00,
2013-02-27 07:02:00,60.0,58.0,-100.00,WNW,286,2.0,-999.0,94,0.00,,,-99.99,0.700000,,2013-02-27 12:02:00,
2013-02-27 07:13:00,60.0,58.0,-100.00,WNW,286,2.0,-999.0,94,0.00,,,-99.99,0.700000,,2013-02-27 12:13:00,
2013-02-27 07:22:00,59.0,58.0,-100.00,NW,306,3.0,-999.0,94,0.00,,,-99.99,3.100000,,2013-02-27 12:22:00,
2013-02-27 07:33:00,59.0,58.0,-100.00,NNW,336,4.0,-999.0,94,0.00,,,-99.99,10.200000,,2013-02-27 12:33:00,
2013-02-27 07:42:00,59.0,58.0,-100.00,NNW,336,4.0,-999.0,94,0.00,,,-99.99,10.200000,,2013-02-27 12:42:00,
2013-02-27 07:53:00,59.0,58.0,-100.00,NNW,343,5.0,-999.0,93,0.00,,,-99.99,25.000000,,2013-02-27 12:53:00,
2013-02-27 08:02:00,59.0,57.0,-100.00,North,350,6.0,-999.0,91,0.00,,,-99.99,45.500000,,2013-02-27 13:02:00,
2013-02-27 08:11:00,59.0,57.0,-100.00,North,350,6.0,-999.0,91,0.00,,,-99.99,45.500000,,2013-02-27 13:11:00,
2013-02-27 08:22:00,60.0,56.0,-100.00,NNW,338,5.0,-999.0,88,0.00,,,-99.99,65.500000,,2013-02-27 13:22:00,
2013-02-27 08:32:00,60.0,56.0,-100.00,NNW,333,5.0,-999.0,86,0.00,,,-99.99,92.500000,,2013-02-27 13:32:00,
2013-02-27 08:42:00,60.0,55.0,-100.00,NNW,345,6.0,-999.0,85,0.00,,,-99.99,112.800003,,2013-02-27 13:42:00,
2013-02-27 08:52:00,60.0,55.0,-100.00,NNW,345,6.0,-999.0,85,0.00,,,-99.99,112.800003,,2013-02-27 13:52:00,
2013-02-27 09:02:00,61.0,55.0,-100.00,NNW,342,8.0,-999.0,83,0.00,,,-99.99,221.899994,,2013-02-27 14:02:00,
2013-02-27 09:12:00,61.0,56.0,-100.00,NNW,338,8.0,-999.0,81,0.00,,,-99.99,315.299988,,2013-02-27 14:12:00,
2013-02-27 09:22:00,61.0,56.0,-100.00,NNW,338,8.0,-999.0,81,0.00,,,-99.99,315.299988,,2013-02-27 14:22:00,
2013-02-27 09:32:00,62.0,55.0,-100.00,NNW,344,10.0,-999.0,77,0.00,,,-99.99,396.600006,,2013-02-27 14:32:00,
2013-02-27 09:42:00,62.0,55.0,-100.00,NNW,342,10.0,-999.0,76,0.00,,,-99.99,428.100006,,2013-02-27 14:42:00,
2013-02-27 09:52:00,62.0,55.0,-100.00,NNW,342,10.0,-999.0,76,0.00,,,-99.99,428.100006,,2013-02-27 14:52:00,
2013-02-27 10:02:00,63.0,55.0,-100.00,NW,326,9.0,-999.0,74,0.00,,,-99.99,452.200012,,2013-02-27 15:02:00,
2013-02-27 10:12:00,64.0,55.0,-100.00,NNW,329,8.0,-999.0,73,0.00,,,-99.99,453.500000,,2013-02-27 15:12:00,
2013-02-27 10:22:00,64.0,55.0,-100.00,NNW,329,8.0,-999.0,73,0.00,,,-99.99,453.500000,,2013-02-27 15:22:00,
2013-02-27 10:32:00,64.0,55.0,-100.00,NNW,330,10.0,-999.0,71,0.00,,,-99.99,475.799988,,2013-02-27 15:32:00,
2013-02-27 10:42:00,65.0,55.0,-100.00,NNW,332,7.0,-999.0,68,0.00,,,-99.99,576.000000,,2013-02-27 15:42:00,
2013-02-27 10:52:00,65.0,55.0,-100.00,NNW,332,7.0,-999.0,68,0.00,,,-99.99,576.000000,,2013-02-27 15:52:00,
2013-02-27 11:02:00,65.0,54.0,-100.00,NNW,328,9.0,-999.0,66,0.00,,,-99.99,590.799988,,2013-02-27 16:02:00,
2013-02-27 11:12:00,66.0,54.0,-100.00,NNW,335,7.0,-999.0,65,0.00,,,-99.99,607.599976,,2013-02-27 16:12:00,
2013-02-27 11:22:00,66.0,54.0,-100.00,NNW,335,7.0,-999.0,65,0.00,,,-99.99,607.599976,,2013-02-27 16:22:00,
2013-02-27 11:32:00,66.0,53.0,-100.00,NW,315,7.0,-999.0,62,0.00,,,-99.99,654.500000,,2013-02-27 16:32:00,
2013-02-27 11:42:00,67.0,53.0,-100.00,WNW,303,8.0,-999.0,61,0.00,,,-99.99,718.000000,,2013-02-27 16:42:00,
2013-02-27 11:52:00,67.0,53.0,-100.00,WNW,303,8.0,-999.0,61,0.00,,,-99.99,718.000000,,2013-02-27 16:52:00,
2013-02-27 12:02:00,67.0,53.0,-100.00,WNW,303,7.0,-999.0,60,0.00,,,-99.99,735.000000,,2013-02-27 17:02:00,
2013-02-27 12:11:00,67.0,53.0,-100.00,WNW,303,7.0,-999.0,60,0.00,,,-99.99,735.000000,,2013-02-27 17:11:00,
2013-02-27 12:21:00,68.0,53.0,-100.00,WNW,282,7.0,-999.0,58,0.00,,,-99.99,742.000000,,2013-02-27 17:21:00,
2013-02-27 12:32:00,68.0,52.0,-100.00,WNW,285,8.0,-999.0,56,0.00,,,-99.99,749.000000,,2013-02-27 17:32:00,
2013-02-27 12:42:00,69.0,52.0,-100.00,WNW,291,7.0,-999.0,56,0.00,,,-99.99,761.000000,,2013-02-27 17:42:00,
2013-02-27 12:52:00,69.0,52.0,-100.00,WNW,291,7.0,-999.0,56,0.00,,,-99.99,761.000000,,2013-02-27 17:52:00,
2013-02-27 13:02:00,70.0,52.0,-100.00,NW,312,7.0,-999.0,53,0.00,,,-99.99,733.000000,,2013-02-27 18:02:00,
2013-02-27 13:11:00,70.0,52.0,-100.00,WNW,300,7.0,-999.0,52,0.00,,,-99.99,764.000000,,2013-02-27 18:11:00,
2013-02-27 13:22:00,70.0,52.0,-100.00,WNW,300,7.0,-999.0,52,0.00,,,-99.99,764.000000,,2013-02-27 18:22:00,
2013-02-27 13:32:00,71.0,52.0,-100.00,WNW,300,8.0,-999.0,52,0.00,,,-99.99,756.000000,,2013-02-27 18:32:00,
2013-02-27 13:42:00,71.0,52.0,-100.00,West,265,7.0,-999.0,50,0.00,,,-99.99,744.000000,,2013-02-27 18:42:00,
2013-02-27 13:52:00,71.0,52.0,-100.00,West,265,7.0,-999.0,50,0.00,,,-99.99,744.000000,,2013-02-27 18:52:00,
2013-02-27 14:01:00,72.0,52.0,-100.00,SW,231,4.0,-999.0,49,0.00,,,-99.99,730.000000,,2013-02-27 19:01:00,
2013-02-27 14:12:00,72.0,52.0,-100.00,SW,231,4.0,-999.0,49,0.00,,,-99.99,730.000000,,2013-02-27 19:12:00,
2013-02-27 14:21:00,73.0,52.0,-100.00,WSW,243,6.0,-999.0,48,0.00,,,-99.99,720.000000,,2013-02-27 19:21:00,
2013-02-27 14:32:00,73.0,53.0,-100.00,WNW,285,8.0,-999.0,48,0.00,,,-99.99,707.000000,,2013-02-27 19:32:00,
2013-02-27 14:42:00,74.0,53.0,-100.00,West,274,7.0,-999.0,47,0.00,,,-99.99,675.700012,,2013-02-27 19:42:00,
2013-02-27 14:52:00,74.0,53.0,-100.00,West,274,7.0,-999.0,47,0.00,,,-99.99,675.700012,,2013-02-27 19:52:00,
2013-02-27 15:02:00,75.0,53.0,-100.00,West,262,8.0,-999.0,46,0.00,,,-99.99,632.599976,,2013-02-27 20:02:00,
2013-02-27 15:12:00,75.0,52.0,-100.00,West,262,9.0,-999.0,44,0.00,,,-99.99,560.700012,,2013-02-27 20:12:00,
2013-02-27 15:22:00,75.0,52.0,-100.00,West,262,9.0,-999.0,44,0.00,,,-99.99,560.700012,,2013-02-27 20:22:00,
2013-02-27 15:32:00,76.0,51.0,-100.00,West,261,11.0,-999.0,42,0.00,,,-99.99,553.000000,,2013-02-27 20:32:00,
2013-02-27 15:42:00,76.0,51.0,-100.00,West,281,10.0,-999.0,42,0.00,,,-99.99,483.700012,,2013-02-27 20:42:00,
2013-02-27 15:52:00,76.0,51.0,-100.00,West,281,10.0,-999.0,42,0.00,,,-99.99,483.700012,,2013-02-27 20:52:00,
2013-02-27 16:02:00,76.0,51.0,-100.00,West,265,9.0,-999.0,42,0.00,,,-99.99,473.799988,,2013-02-27 21:02:00,
2013-02-27 16:11:00,76.0,50.0,-100.00,West,278,10.0,-999.0,39,0.00,,,-99.99,468.899994,,2013-02-27 21:11:00,
2013-02-27 16:22:00,76.0,50.0,-100.00,West,278,10.0,-999.0,39,0.00,,,-99.99,468.899994,,2013-02-27 21:22:00,
2013-02-27 16:32:00,75.0,51.0,-100.00,WNW,287,14.0,-999.0,42,0.00,,,-99.99,384.700012,,2013-02-27 21:32:00,
2013-02-27 16:42:00,74.0,51.0,-100.00,WNW,288,12.0,-999.0,44,0.00,,,-99.99,234.199997,,2013-02-27 21:42:00,
2013-02-27 16:52:00,74.0,51.0,-100.00,WNW,288,12.0,-999.0,44,0.00,,,-99.99,234.199997,,2013-02-27 21:52:00,
2013-02-27 17:01:00,72.0,51.0,-100.00,WNW,291,12.0,-999.0,46,0.00,,,-99.99,196.300003,,2013-02-27 22:01:00,
2013-02-27 17:11:00,72.0,52.0,-100.00,WNW,291,13.0,-999.0,49,0.00,,,-99.99,253.600006,,2013-02-27 22:11:00,
2013-02-27 17:21:00,72.0,52.0,-100.00,WNW,291,13.0,-999.0,49,0.00,,,-99.99,253.600006,,2013-02-27 22:21:00,
2013-02-27 17:32:00,71.0,51.0,-100.00,West,279,14.0,-999.0,49,0.00,,,-99.99,216.300003,,2013-02-27 22:32:00,
2013-02-27 17:42:00,69.0,51.0,-100.00,West,274,12.0,-999.0,51,0.00,,,-99.99,143.399994,,2013-02-27 22:42:00,
2013-02-27 17:52:00,69.0,51.0,-100.00,West,274,12.0,-999.0,51,0.00,,,-99.99,143.399994,,2013-02-27 22:52:00,
2013-02-27 18:01:00,68.0,51.0,-100.00,West,270,11.0,-999.0,54,0.00,,,-99.99,116.900002,,2013-02-27 23:01:00,
2013-02-27 18:11:00,68.0,51.0,-100.00,West,270,11.0,-999.0,54,0.00,,,-99.99,116.900002,,2013-02-27 23:11:00,
2013-02-27 18:21:00,67.0,52.0,-100.00,West,276,9.0,-999.0,58,0.00,,,-99.99,56.299999,,2013-02-27 23:21:00,
2013-02-27 18:32:00,65.0,52.0,-100.00,West,262,9.0,-999.0,62,0.00,,,-99.99,22.000000,,2013-02-27 23:32:00,
2013-02-27 18:42:00,63.0,52.0,-100.00,West,260,8.0,-999.0,65,0.00,,,-99.99,5.800000,,2013-02-27 23:42:00,
2013-02-27 18:53:00,63.0,52.0,-100.00,West,260,8.0,-999.0,65,0.00,,,-99.99,5.800000,,2013-02-27 23:53:00,
2013-02-27 19:02:00,62.0,51.0,-100.00,West,270,8.0,-999.0,67,0.00,,,-99.99,1.200000,,2013-02-28 00:02:00,
2013-02-27 19:12:00,62.0,51.0,-100.00,West,270,8.0,-999.0,67,0.00,,,-99.99,1.200000,,2013-02-28 00:12:00,
2013-02-27 19:21:00,61.0,51.0,-100.00,West,273,7.0,-999.0,69,0.00,,,-99.99,0.600000,,2013-02-28 00:21:00,
2013-02-27 19:32:00,60.0,51.0,-100.00,West,280,8.0,-999.0,72,0.00,,,-99.99,0.600000,,2013-02-28 00:32:00,
2013-02-27 19:42:00,60.0,51.0,-100.00,West,280,8.0,-999.0,72,0.00,,,-99.99,0.600000,,2013-02-28 00:42:00,
2013-02-27 19:52:00,60.0,51.0,-100.00,West,281,8.0,-999.0,73,0.00,,,-99.99,0.500000,,2013-02-28 00:52:00,
2013-02-27 20:01:00,59.0,51.0,-100.00,WNW,288,8.0,-999.0,75,0.00,,,-99.99,0.500000,,2013-02-28 01:01:00,
2013-02-27 20:11:00,58.0,51.0,-100.00,WNW,294,9.0,-999.0,77,0.00,,,-99.99,0.500000,,2013-02-28 01:11:00,
2013-02-27 20:22:00,58.0,51.0,-100.00,WNW,294,9.0,-999.0,77,0.00,,,-99.99,0.500000,,2013-02-28 01:22:00,
2013-02-27 20:32:00,57.0,51.0,-100.00,WNW,293,9.0,-999.0,78,0.00,,,-99.99,0.500000,,2013-02-28 01:32:00,
2013-02-27 20:42:00,57.0,51.0,-100.00,WNW,293,9.0,-999.0,78,0.00,,,-99.99,0.500000,,2013-02-28 01:42:00,
2013-02-27 20:52:00,57.0,51.0,-100.00,WNW,286,8.0,-999.0,80,0.00,,,-99.99,0.500000,,2013-02-28 01:52:00,
2013-02-27 21:01:00,56.0,50.0,-100.00,West,275,7.0,-999.0,80,0.00,,,-99.99,0.500000,,2013-02-28 02:01:00,
2013-02-27 21:11:00,56.0,50.0,-100.00,West,267,6.0,-999.0,81,0.00,,,-99.99,0.500000,,2013-02-28 02:11:00,
2013-02-27 21:22:00,56.0,50.0,-100.00,West,267,6.0,-999.0,81,0.00,,,-99.99,0.500000,,2013-02-28 02:22:00,
2013-02-27 21:32:00,56.0,50.0,-100.00,West,266,5.0,-999.0,82,0.00,,,-99.99,0.500000,,2013-02-28 02:32:00,
2013-02-27 21:42:00,56.0,50.0,-100.00,West,266,5.0,-999.0,82,0.00,,,-99.99,0.500000,,2013-02-28 02:42:00,
2013-02-27 21:52:00,56.0,50.0,-100.00,West,266,5.0,-999.0,82,0.00,,,-99.99,0.500000,,2013-02-28 02:52:00,
2013-02-27 22:01:00,55.0,50.0,-100.00,WNW,291,8.0,-999.0,83,0.00,,,-99.99,0.500000,,2013-02-28 03:01:00,
2013-02-27 22:11:00,55.0,50.0,-100.00,WNW,291,8.0,-999.0,83,0.00,,,-99.99,0.500000,,2013-02-28 03:11:00,
2013-02-27 22:21:00,55.0,50.0,-100.00,WNW,287,7.0,-999.0,84,0.00,,,-99.99,0.500000,,2013-02-28 03:21:00,
2013-02-27 22:32:00,54.0,50.0,-100.00,WNW,288,7.0,-999.0,85,0.00,,,-99.99,0.500000,,2013-02-28 03:32:00,
2013-02-27 22:42:00,54.0,50.0,-100.00,WNW,286,6.0,-999.0,85,0.00,,,-99.99,0.500000,,2013-02-28 03:42:00,
2013-02-27 22:52:00,54.0,50.0,-100.00,WNW,286,6.0,-999.0,85,0.00,,,-99.99,0.500000,,2013-02-28 03:52:00,
2013-02-27 23:02:00,54.0,50.0,-100.00,WNW,294,6.0,-999.0,86,0.00,,,-99.99,0.500000,,2013-02-28 04:02:00,
2013-02-27 23:11:00,54.0,50.0,-100.00,NW,304,5.0,-999.0,86,0.00,,,-99.99,0.500000,,2013-02-28 04:11:00,
2013-02-27 23:22:00,54.0,50.0,-100.00,NW,304,5.0,-999.0,86,0.00,,,-99.99,0.500000,,2013-02-28 04:22:00,
2013-02-27 23:32:00,53.0,49.0,-100.00,WNW,300,5.0,-999.0,87,0.00,,,-99.99,0.500000,,2013-02-28 04:32:00,
2013-02-27 23:42:00,53.0,49.0,-100.00,WNW,293,5.0,-999.0,87,0.00,,,-99.99,0.500000,,2013-02-28 04:42:00,
2013-02-27 23:52:00,53.0,49.0,-100.00,WNW,293,5.0,-999.0,87,0.00,,,-99.99,0.500000,,2013-02-28 04:52:00,